SL-8 DEB, 21180

Orbit data source: Space-Track

SL-8 DEB, 21180 is space debris in LEO originally from a launch on Tue, 12 Feb 1991 UTC launched from the Plesetsk Missile And Space Complex (PKMTR). Debris objects in space refer to the collection of defunct objects orbiting the Earth. Examples of debris include non-operational satellites, rocket bodies, and fragments generated from explosions, collisions, or faulty payload assembly.

Loading next visibility...
Identifier
21180, 1991-009AT
Orbit
LEO
Country
Flag of CISCIS
Related business
Manufacturer
Unknown
Mission
Spacecraft
Bus & Motor
Unknown
Mass
Unknown
Launch date (UTC)
1991-02-12 (35 years ago)
Launch vehicle
Unknown
Launch site
Plesetsk Missile And Space Complex (PKMTR)
Object type
Payload
Rocket body
Debris
Shape & HBR
Unknown shape, 0.1 m
Radar Cross Section
Medium (>0.1 m² and <1 m²)

Expand to show TLE details & history
Last TLE update: 2 days ago

TLE from 2 days ago
0 SL-8 DEB
1 21180U 91009AT  26171.38045648 -.00000048  00000-0 -28077-3 0  9997
2 21180  74.0626 317.2417 0105076 307.3000  78.6019 12.28933303581094
Epoch: 2026-06-20T09:07Z
TLE epoch observation values (Epoch: 2026-06-20T09:07:51.439Z)
Latitude
26.0006°
Longitude
-80.35147°
Altitude
1,540.887 km
Speed
7.105 km/s
True Right ascension
21h 40m 50s
True Declination
25° 52' 43"
Sunlit
Object was in daylight at epoch
Visualization orbit readout
Latitude
Unknown
Longitude
Unknown
Altitude
Unknown
Speed
Unknown
Apparent Right ascension
Unknown
Apparent Declination
Unknown
Sunlit
N/A
Visualization observer readout
Local Sidereal Time
02:31:28
Azimuth
Unknown
Elevation
Unknown
Doppler factor
Unknown
Orbital elements
Apogee altitude
1,635.048 km
Perigee altitude
1,468.401 km
Semi-major axis
7,929.861 km
Eccentricity
0.01051
Inclination
74.0626°
RAAN
317.2417°
Arg. of periapsis
307.3°
True anomaly
79.78522°
Mean anomaly
78.6019°
Eccentric anomaly
79.19326°
Mean motion
3.07358 °/min
Orbital period
117.13 mins
BSTAR
-0.00028077
Loading maneuver chart data...
Computing Atmospheric mass density...
Loading historical data...
Loading historical data...
Loading historical data...
Loading historical data...
Loading historical data...
Loading historical data...
Loading historical data...

Documentation

Showing up to 5 results
|